Total_Precipitation_Accumulation
0.74 0.45 0.53 0.50 0.44 0.45 0.44 0.48 0.54 0.55 0.52 0.51 0.48 0.46 0.45 0.48 0.53 0.60 0.64 0.72 0.90 1.08 1.22 1.37 1.52 1.55 1.63 1.74 1.79 1.82 1.71 1.71 1.89 2.07 2.09 2.01 2.11 2.18 2.14 1.95 1.83 1.51 1.53
0.58 0.44 0.54 0.50 0.46 0.45 0.46 0.50 0.53 0.58 0.57 0.57 0.54 0.51 0.51 0.54 0.56 0.66 0.72 0.79 0.97 1.11 1.19 1.46 1.64 1.66 1.59 1.62 1.70 1.74 1.65 1.73 2.03 2.32 2.41 2.14 2.22 2.38 2.36 2.14 2.17 1.93 1.56
0.45 0.44 0.50 0.48 0.45 0.49 0.50 0.54 0.56 0.61 0.63 0.62 0.61 0.58 0.58 0.64 0.68 0.72 0.87 0.99 1.11 1.22 1.23 1.37 1.60 1.72 1.61 1.51 1.70 1.81 1.73 1.77 2.32 2.75 3.00 2.64 2.47 2.60 2.48 2.31 2.15 1.93 1.55
0.53 0.62 0.57 0.47 0.45 0.50 0.52 0.57 0.60 0.65 0.72 0.75 0.77 0.71 0.67 0.73 0.80 0.85 1.01 1.12 1.22 1.39 1.37 1.34 1.46 1.62 1.53 1.48 1.72 1.81 1.78 1.87 2.51 3.00 3.19 2.89 2.85 3.08 2.73 2.45 2.26 2.00 1.79
0.63 0.72 0.65 0.53 0.51 0.50 0.57 0.57 0.63 0.70 0.79 0.85 0.90 0.97 0.90 0.80 0.84 0.97 1.13 1.19 1.26 1.41 1.64 1.56 1.53 1.65 1.48 1.47 1.63 1.74 1.85 2.14 2.64 2.84 3.06 3.25 3.57 3.66 2.88 2.52 2.40 2.24 2.01
0.66 0.69 0.64 0.62 0.60 0.58 0.61 0.64 0.74 0.84 0.89 0.91 1.00 1.08 1.12 0.99 0.96 1.16 1.29 1.28 1.34 1.44 1.65 1.88 1.80 1.89 1.77 1.54 1.58 1.72 2.02 2.45 2.52 2.56 3.24 3.51 3.49 3.43 2.86 2.53 2.47 2.59 2.41
0.71 0.72 0.80 0.84 0.87 0.87 0.82 0.81 0.88 0.93 1.00 1.04 1.04 1.10 1.21 1.17 1.16 1.43 1.46 1.42 1.48 1.54 1.67 1.81 1.79 1.96 1.84 1.62 1.59 1.73 2.12 2.43 2.33 2.54 3.15 3.51 3.35 3.22 3.03 2.83 2.70 2.74 2.64
0.84 0.91 1.06 1.19 1.27 1.17 1.07 1.02 1.03 1.02 1.02 1.09 1.21 1.19 1.23 1.31 1.39 1.51 1.50 1.51 1.66 1.75 1.79 1.85 1.86 1.90 1.90 1.82 1.74 1.78 2.03 2.23 2.07 2.36 2.92 3.13 3.03 2.92 3.09 2.94 2.82 2.79 2.71
1.24 1.31 1.29 1.23 1.22 1.23 1.19 1.14 1.20 1.19 1.15 1.17 1.31 1.39 1.32 1.36 1.47 1.59 1.67 1.65 1.69 1.70 1.75 1.87 2.10 2.01 1.87 1.87 1.87 1.92 2.15 2.34 2.37 2.43 2.73 3.06 2.97 3.12 3.29 3.06 2.77 2.83 2.92
2.09 2.31 1.81 1.44 1.30 1.18 1.18 1.27 1.36 1.51 1.44 1.35 1.40 1.55 1.56 1.57 1.64 1.72 1.76 1.79 1.76 1.81 1.82 2.02 2.26 2.26 2.12 1.99 1.92 2.02 2.27 2.30 2.12 2.43 2.85 2.93 3.06 3.42 3.69 3.43 3.09 3.04 2.98
2.80 3.01 2.28 1.81 1.59 1.46 1.43 1.46 1.56 1.74 1.85 1.70 1.63 1.71 1.85 1.96 2.18 2.20 2.01 2.08 2.00 2.09 2.12 2.22 2.40 2.40 2.42 2.40 2.30 2.30 2.25 2.07 2.32 2.62 2.76 2.95 3.31 3.79 3.96 3.74 3.38 3.19 3.05
2.84 2.67 2.42 2.22 1.93 1.76 1.68 1.93 2.05 1.97 2.03 1.89 2.05 1.98 2.18 2.67 2.84 2.50 2.48 2.41 2.30 2.39 2.53 2.62 2.64 2.59 2.44 2.45 2.66 2.67 2.23 2.20 2.47 2.67 2.79 2.91 3.24 3.84 4.07 3.81 3.50 3.38 3.32
3.32 2.83 2.57 2.36 2.29 2.15 2.24 2.47 2.57 2.67 2.70 2.50 2.63 2.62 2.71 2.82 2.78 2.79 2.79 2.70 2.72 2.73 2.98 3.13 2.96 2.68 2.51 2.55 2.63 2.66 2.52 2.52 2.52 2.64 2.82 3.03 3.32 3.85 4.14 3.93 3.59 3.52 3.56
3.51 3.38 2.86 2.73 2.82 3.03 3.06 3.00 2.96 2.94 3.02 2.95 3.01 2.86 2.98 3.07 3.06 2.98 3.01 2.96 3.04 2.98 3.22 3.26 3.24 3.12 2.91 2.73 2.66 2.78 2.86 2.89 2.73 2.78 3.15 3.30 3.34 3.68 4.12 4.14 3.93 3.80 3.87
3.57 3.48 3.19 3.38 3.47 3.55 3.59 3.58 3.33 3.22 3.44 3.47 3.44 3.33 3.37 3.29 3.13 3.15 3.13 3.15 3.05 3.20 3.35 3.39 3.28 3.18 3.08 2.93 2.73 2.72 2.89 2.98 3.11 3.14 3.27 3.36 3.18 3.37 3.88 4.25 4.34 4.39 4.35
3.54 3.77 3.75 3.84 3.74 3.67 3.75 3.94 3.97 3.64 3.79 4.01 4.11 3.96 3.77 3.65 3.54 3.55 3.64 3.60 3.35 3.37 3.51 3.63 3.53 3.42 3.17 3.04 2.87 2.83 2.90 2.87 2.98 3.19 3.26 3.34 3.25 3.22 3.61 4.14 4.55 4.77 4.77
3.75 3.83 3.88 3.77 3.97 4.11 4.13 4.11 4.17 4.07 4.05 4.21 4.44 4.44 4.06 3.78 3.89 3.94 4.14 4.12 3.82 3.77 3.87 3.95 3.95 3.80 3.38 3.10 3.08 3.13 3.11 3.10 2.97 2.98 3.19 3.29 3.20 3.28 3.51 3.67 4.01 4.34 4.58
3.77 4.11 4.06 3.66 4.11 4.35 4.29 4.25 4.05 4.13 4.39 4.59 4.64 4.76 4.43 4.05 3.96 4.18 4.16 3.99 3.98 4.10 4.33 4.49 4.39 4.29 4.05 3.82 3.67 3.38 3.14 3.05 2.93 3.06 3.06 3.10 3.42 3.34 3.36 3.23 3.43 3.80 4.12
3.95 4.44 4.27 4.02 4.21 4.35 4.41 4.49 4.26 4.38 4.71 4.83 4.99 5.00 4.55 4.13 4.05 4.36 4.47 4.46 4.37 4.45 4.57 4.35 4.50 4.41 4.56 4.40 3.89 3.61 3.32 3.14 3.06 3.03 3.09 3.07 3.22 3.36 3.32 3.12 3.20 3.47 3.77
4.25 4.99 4.61 4.23 4.22 4.54 4.58 4.43 4.44 4.57 4.89 5.19 5.27 5.07 4.73 4.55 4.38 4.64 4.65 4.70 4.76 4.91 4.82 4.75 4.81 4.61 4.47 4.41 3.96 3.74 3.48 3.17 3.11 3.03 2.90 2.93 2.98 2.86 2.94 2.97 3.10 3.03 3.34
4.18 4.68 4.68 4.50 4.58 4.69 4.72 4.50 4.66 4.86 5.15 5.46 5.42 5.31 5.19 5.04 4.96 5.09 5.15 5.11 4.96 4.94 4.86 4.77 4.76 4.69 4.38 4.19 4.24 3.87 3.36 2.91 2.66 2.58 2.56 2.64 2.61 2.54 2.66 2.91 3.11 3.03 2.92
3.91 4.17 4.48 4.64 4.68 4.49 4.86 5.15 5.44 5.79 5.85 6.15 6.40 6.43 6.20 5.89 5.70 5.54 5.58 5.24 4.97 4.90 4.81 4.70 4.60 4.47 4.10 3.98 4.06 4.09 3.53 3.06 2.49 2.15 2.23 2.23 2.30 2.45 2.50 2.43 2.64 2.74 2.66
3.72 4.07 4.41 4.77 4.90 4.84 5.34 5.86 6.31 6.72 6.65 6.72 6.67 6.63 6.56 6.12 5.79 5.57 5.34 5.17 5.00 4.85 4.70 4.67 4.58 4.45 4.16 3.97 3.92 4.14 3.90 3.37 2.78 2.43 2.18 2.17 2.28 2.38 2.33 2.26 2.28 2.33 2.40
3.46 3.88 4.22 4.64 5.06 5.38 5.79 6.27 6.80 7.16 7.42 7.25 6.91 6.62 6.24 5.75 5.42 5.06 4.86 4.91 4.81 4.61 4.42 4.12 4.02 4.03 4.01 3.83 3.75 3.58 3.50 3.36 3.16 2.83 2.50 2.43 2.47 2.44 2.30 2.25 2.29 2.41 2.48
3.26 3.63 4.07 4.42 4.84 5.49 6.24 6.80 7.34 7.70 7.74 7.19 6.58 6.03 5.55 5.11 4.77 4.53 4.46 4.56 4.47 4.23 4.03 3.78 3.61 3.43 3.43 3.53 3.57 3.47 3.32 3.18 2.94 2.83 2.67 2.50 2.47 2.37 2.25 2.21 2.26 2.38 2.45
3.01 3.30 3.85 4.39 4.77 5.34 6.09 6.67 7.03 7.23 7.17 6.72 6.05 5.51 5.05 4.58 4.19 3.87 3.70 3.63 3.57 3.40 3.28 3.25 3.22 3.17 3.17 3.25 3.29 3.25 3.16 3.06 2.95 2.95 2.79 2.52 2.47 2.45 2.33 2.18 2.08 2.09 2.15